sat.trackr.live / text

‹ back to catalog

STARLINK-30597

NORAD 58078 · 2023-160D

PAYLOAD ACTIVE UNKNOWN

§ Identity

Operator
Country
US
Launch date
2023-10-18
Launch site
AFETR
Launch vehicle
Mass (kg)
RCS (m²)

Purposes: comms

External: N2YO · Heavens-Above · Gunter

§ Orbital elements

Epoch: 2026-05-24T23:03:43.691040Z

Period
94.27 min
Inclination
43.0041°
Eccentricity
0.0001577
Mean motion
15.27577383 rev/d
Perigee alt
482.0 km
Apogee alt
484.1 km
Semi-major
6,861.2 km
B*
-1.6232e-5
RAAN
6.8692°
Arg perigee
270.6356°
Mean anomaly
89.4315°
Rev number
14,461

§ Raw data

STARLINK-305971 58078U 23160D   26144.96092235 -.00000709  00000+0 -16232-4 0  99982 58078  43.0041   6.8692 0001577 270.6356  89.4315 15.27577383144616

JSON: /api/v1/satellites/58078 · /tle

For live sub-satellite position, see the globe view (requires WebGL).

§ Visibility from observer

Set your observer location to see the next 7 days of passes ≥ 10°. The values pass through the URL so the page stays shareable.

No JS? Fill the form by hand. The geolocation button needs JavaScript.